This is the latest recevied weather packets stored in our database for station/object KC3VCX. If no packets are shown the sender has not sent any weather packets the latest 10 day(s).
| Time | Temp. | Humidity | Pressure | Rain* | Wind** | Luminosity | Snow |
|---|---|---|---|---|---|---|---|
| 1777502829 | 13.89° C | 91% | 1009 hPa | 0 mm | - | 73 W/m² | - |
| 1777502526 | 13.89° C | 91% | 1009.2 hPa | 0 mm | - | 62 W/m² | - |
| 1777502223 | 13.89° C | 91% | 1009 hPa | 0 mm | - | 57 W/m² | - |
| 1777501920 | 13.89° C | 91% | 1009 hPa | 0 mm | - | 30 W/m² | - |
| 1777501617 | 13.89° C | 91% | 1008.8 hPa | 0 mm | - | 58 W/m² | - |
| 1777501314 | 13.89° C | 91% | 1008.7 hPa | 0 mm | - | 66 W/m² | - |
| 1777501012 | 13.89° C | 91% | 1008.4 hPa | 0 mm | - | 89 W/m² | - |
| 1777500709 | 13.89° C | 91% | 1008.5 hPa | 0 mm | - | 81 W/m² | - |
| 1777500406 | 13.89° C | 91% | 1008.5 hPa | 0 mm | - | 44 W/m² | - |
| 1777500102 | 13.89° C | 91% | 1008.2 hPa | 0 mm | - | 76 W/m² | - |
| 1777499799 | 13.89° C | 91% | 1008.3 hPa | 0 mm | - | 91 W/m² | - |
| 1777499495 | 13.89° C | 91% | 1008.4 hPa | 0 mm | - | 83 W/m² | - |
| 1777499193 | 13.89° C | 91% | 1008.2 hPa | 0 mm | - | 125 W/m² | - |
| 1777498889 | 13.89° C | 91% | 1008.4 hPa | 0 mm | - | 138 W/m² | - |
| 1777498586 | 13.89° C | 91% | 1008.3 hPa | 0 mm | - | 159 W/m² | - |
| 1777498282 | 13.89° C | 91% | 1008.4 hPa | 0 mm | - | 132 W/m² | - |
| 1777497981 | 13.89° C | 91% | 1008.5 hPa | 0 mm | - | 133 W/m² | - |
| 1777497676 | 13.89° C | 91% | 1008.2 hPa | 0 mm | - | 53 W/m² | - |
| 1777497373 | 13.89° C | 91% | 1008.2 hPa | 0 mm | - | 45 W/m² | - |
| 1777497069 | 13.89° C | 91% | 1008.1 hPa | 0 mm | - | 95 W/m² | - |
| 1777496766 | 13.89° C | 91% | 1008.2 hPa | 0 mm | - | 75 W/m² | - |
| 1777496463 | 13.89° C | 91% | 1008.4 hPa | 0 mm | - | 75 W/m² | - |
| 1777496159 | 13.89° C | 91% | 1008.3 hPa | 0 mm | - | 104 W/m² | - |
| 1777495855 | 13.89° C | 91% | 1008.3 hPa | 0 mm | - | 52 W/m² | - |
| 1777495551 | 13.89° C | 92% | 1008.2 hPa | 0 mm | - | 65 W/m² | - |
* Rain latest hour (hover to see other rain measurements)
** Current wind speed in m/s (hover to see current wind gust speed)